Regional Weather Roundup
Issued by NWS

Home | Current Version | Previous Version | Graphics & Text | Print | Product List | Glossary On
Versions: 1 2 3 4 5 6 7 8 9 10 11 12 13 14 15 16 17 18 19 20 21 22 23 24 25 26 27 28 29 30 31 32 33 34 35 36 37 38 39 40 41 42 43 44 45 46 47 48 49 50
000
ASUS45 KBOU 210610
RWRCO

WEATHER ROUNDUP FOR COLORADO
NATIONAL WEATHER SERVICE DENVER/BOULDER CO
1100 PM MST SAT JAN 20 2018

NOTE: "FAIR" INDICATES FEW OR NO CLOUDS BELOW 12000 FEET WITH NO
SIGNIFICANT WEATHER AND/OR OBSTRUCTIONS TO VISIBILITY.

COZ001>005-013-030-031-210700-
...NORTHWEST COLORADO...

CITY           SKY/WX    TMP DP  RH WIND       PRES   REMARKS
CRAIG          LGT SNOW  27  23  85 SW13      29.76R FOG     WCI  16
HAYDEN         FLURRIES N/A N/A N/A W10       29.75R
MEEKER         FLURRIES  28  27  96 CALM      29.75S
RABBIT EARS PA SNOW      18  16  93 W12G21    29.68F VSB 1/2 WCI   5
STEAMBOAT SPGS CLOUDY    27  24  91 CALM      29.73S
WALDEN         CLOUDY    30  27  86 CALM      29.68R
$$

COZ006>008-011-210700-
...WEST CENTRAL VALLEYS...

CITY           SKY/WX    TMP DP  RH WIND       PRES   REMARKS
GRAND JUNCTION MIX PCPN  34  34 100 E5        29.72R WCI  30
MONTROSE       CLOUDY    40  21  46 VRB7      29.76R
EAGLE          FLURRIES  33  30  88 W8        29.73R WCI  26
RIFLE          LGT RAIN  34  34 100 CALM      29.73S
DELTA          CLOUDY    39  34  83 CALM      29.75R
NUCLA          CLOUDY    34  30  86 SE5       29.78F WCI  30
$$

COZ017>023-064>068-210700-
...SOUTHWEST COLORADO...

CITY           SKY/WX    TMP DP  RH WIND       PRES   REMARKS
DURANGO        CLOUDY    29  29 100 E6        29.77F WCI  23
CORTEZ         FAIR      29  28  96 CALM      29.79F
PAGOSA SPRINGS LGT SNOW  30  29  97 W6G17     29.80F WCI  24
TELLURIDE      CLOUDY    26  19  76 E7        29.78S WCI  18
WOLF CREEK PAS HVY SNOW  14  14 100 MISG      29.78R VSB 1/4
$$

COZ009-010-012-014-032>034-037-058>063-210700-
...CENTRAL COLORADO...

CITY           SKY/WX    TMP DP  RH WIND       PRES   REMARKS
ASPEN          MIX PCPN  30  29  96 N10G21    29.68S WCI  21
BUENA VISTA    MOCLDY    36  22  56 SE14      29.66F
COPPER MTN     NOT AVBL
BERTHOUD PASS  FLURRIES  18   5  57 SE28G35   29.71F WCI  -1
COTTONWOOD PAS   N/A     36  27  69 E5        29.68F
GUNNISON       FLURRIES  31  26  82 SW7       29.71R WCI  24
KREMMLING      CLOUDY    37  32  81 CALM      29.65F
LEADVILLE      CLOUDY    27  22  81 S10       29.65F WCI  17
MONARCH PASS   CLOUDY    21  21 100 S15G25    29.82F WCI   8
SALIDA         MOCLDY    43  24  48 S7        29.73F
SUNLIGHT       LGT SNOW  19  18  93 SW20G32   29.73S WCI   4
WILKERSON PASS CLOUDY    27  18  69 SW7G20    29.77S WCI  19
$$

COZ069>075-210700-
...SAN LUIS VALLEY/SANGRE DE CRISTO MOUNTAINS...

CITY           SKY/WX    TMP DP  RH WIND       PRES   REMARKS
ALAMOSA        FAIR      23  18  81 SE8       29.69F WCI  14
DEL NORTE      MOCLDY    28  25  88 CALM      29.70S
LA VETA PASS   FAIR      30  16  55 S15G33      N/A  WCI  19
SAGUACHE       FAIR      25  18  74 CALM      29.69F
$$

COZ035-036-038>040-210700-
...NORTHERN COLORADO FRONT RANGE...

CITY           SKY/WX    TMP DP  RH WIND       PRES   REMARKS
DENVER INTL AP FRZ DRZL  28  26  92 E9        29.80R FOG     WCI  19
DMNS CITY PARK NOT AVBL
AURORA         FRZ DRZL  28  28 100 NE6       29.79F WCI  22
FRONT RANGE AP CLOUDY    30  29  95 NE8       29.80F FOG     WCI  23
ERIE MUNI ARPT LGT SNOW  31  30  96 NE6       29.86F WCI  25
BOULDER MUN AP MIX PCPN  32  32 100 NE5       29.80F WCI  27
CENTENNIAL     CLOUDY    29  27  92 E5        29.78F FOG     WCI  24
BROOMFIELD     MIX PCPN  32  30  93 NE6       29.80F WCI  26
FORT COLLINS   MIX PCPN  30  29  96 E9        29.82F FOG     WCI  22
LONGMONT       MIX PCPN  33  32  94 NE6       29.83F WCI  28
$$

COZ041-046-047-076>085-087-088-210700-
...PIKES PEAK/PALMER DIVIDE AND SOUTHERN FOOTHILLS...

CITY           SKY/WX    TMP DP  RH WIND       PRES   REMARKS
COLO. SPRINGS  MOCLDY    30  25  81 N12       29.74S WCI  20
A. F. ACADEMY  CLOUDY    29  25  87 N12       29.74R WCI  19
SCHRIEVER AFB  MOCLDY    27  25  93 N12G22    29.74S WCI  17
CHEYENNE MTN   MOCLDY    29  25  84 N10       29.68R WCI  20
ELLICOTT       CLOUDY   N/A N/A N/A NE14      29.72F
FALCON         CLOUDY    27  26  98 N14       29.74F WCI  15
FORT CARSON    MOCLDY    32  25  74 N12       29.72S WCI  23
LIMON          CLOUDY    27  27 100 NE17      29.77F FOG     WCI  14
MONUMENT HILL  FOG       25  25 100 NE5       29.76S VSB<1/4 WCI  19
CANON CITY     CLOUDY    41  28  60 SE10      29.73S
WALSENBURG     CLOUDY    34  27  75 N8        29.75S WCI  27
TRINIDAD       FAIR      35  23  61 NE17      29.70R WCI  25
$$

COZ042>045-048>051-090-091-210700-
...NORTHEAST COLORADO...

CITY           SKY/WX    TMP DP  RH WIND       PRES   REMARKS
GREELEY ARPT   MIX PCPN  29  28  96 E6        29.84  FOG     WCI  23
AKRON          CLOUDY    29  27  92 NE9       29.81S WCI  20
BURLINGTON     CLOUDY    30  28  92 N16G25    29.76S WCI  19
WRAY           CLOUDY    32  30  93 N15       29.82R WCI  22
YUMA           CLOUDY    30  27  86 N12       29.82S WCI  21
STERLING       CLOUDY    32  30  93 NE6       29.84S WCI  26
HOLYOKE        CLOUDY    34  30  86 NE10      29.84S WCI  26
FORT MORGAN    CLOUDY    30  25  82 NE10      29.83F WCI  21
$$

COZ086-089-092>099-210700-
...SOUTHEAST COLORADO...

CITY           SKY/WX    TMP DP  RH WIND       PRES   REMARKS
PUEBLO         FAIR      35  26  69 N5        29.77R WCI  31
LA JUNTA       FAIR      32  24  72 N9        29.76R WCI  24
LAMAR          FAIR      28  21  75 NW7       29.72R WCI  21
SPRINGFIELD      N/A     44  16  32 W8        29.66R
$$



USA.gov is the U.S. government's official web portal to all federal, state and local government web resources and services.